[Iaude] MPEC B35: 2024 BL [a=2.29,e=0.69,i=5.7,H=27.1]
    mpec at marsden.cfa.harvard.edu 
    mpec at marsden.cfa.harvard.edu
       
    Thu Jan 18 15:28:17 EST 2024
    
    
  
M.P.E.C. 2024-B35                              Issued 2024 January 18, 20:26 UT
     The Minor Planet Electronic Circulars contain information on unusual
         minor planets, routine data on comets and natural satellites,
         and occasional editorial announcements.  They are published
    on behalf of Division F of the International Astronomical Union by the
          Minor Planet Center, Smithsonian Astrophysical Observatory,
                          Cambridge, MA 02138, U.S.A.
			  
             Prepared using the Tamkin Foundation Computer Network
                              MPC at CFA.HARVARD.EDU
            URL https://www.minorplanetcenter.net/    ISSN 1523-6714
                                    2024 BL                                     
Observations:
     K24B00L* C2024 01 17.32024008 12 54.148+26 05 53.16         20.71GVEB035V00
     K24B00L  C2024 01 17.32576208 12 57.596+26 07 02.53         20.77GVEB035V00
     K24B00L  C2024 01 17.33126708 13 01.049+26 08 11.62         20.82GVEB035V00
     K24B00L  C2024 01 17.33676508 13 04.512+26 09 21.02         20.86GVEB035V00
     K24B00L KC2024 01 17.40245908 13 46.736+26 23 13.96         20.79GVEB035V06
     K24B00L KC2024 01 17.40429708 13 47.946+26 23 37.46         20.30GVEB035V06
     K24B00L KC2024 01 17.40612908 13 49.170+26 24 00.97         20.87GVEB035V06
     K24B00L KC2024 01 17.40795708 13 50.401+26 24 24.37         20.62GVEB035V06
     K24B00L KC2024 01 17.42975 08 14 05.22 +26 29 07.5          20.2 RVEB035291
     K24B00L KC2024 01 17.43141 08 14 06.35 +26 29 28.8          20.3 RVEB035291
     K24B00L KC2024 01 17.43306 08 14 07.48 +26 29 50.4          20.4 RVEB035291
     K24B00L KC2024 01 17.94276808 21 53.465+28 37 18.98         20.0 GVEB035J95
     K24B00L KC2024 01 17.94867208 21 59.282+28 39 02.70         20.0 GVEB035J95
     K24B00L KC2024 01 17.95459808 22 05.105+28 40 47.46         20.2 GVEB035J95
     K24B00L 1C2024 01 18.80301 08 43 01.86 +34 00 06.4          19.5 VXEB035033
     K24B00L 1C2024 01 18.80348 08 43 02.85 +34 00 20.8          19.2 VXEB035033
     K24B00L 1C2024 01 18.80463 08 43 05.17 +34 00 54.8          19.6 VXEB035033
     K24B00L 1C2024 01 18.80536 08 43 06.68 +34 01 16.6          19.5 VXEB035033
Observer details:
033 Karl Schwarzschild Observatory, Tautenburg.  Observers S. Melnikov, C.
    Hogner, F. Ludwig, M. Hartmann, B. Stecklum.  Measurer B. Stecklum.
    1.34-m f/3 Schmidt + CCD.
291 LPL/Spacewatch II.  Observer C. Lejoly.  1.8-m f/2.7 reflector + CCD.
J95 Great Shefford.  Observer P. Birtwhistle.  0.41-m f/6.3 Schmidt-Cassegrain
    + CCD.
V00 Kitt Peak-Bok.  Observer R. A. Mastaler.  Measurers M. J. Brucker, C. E.
    Woodward, D. Fay, J. B. Fazekas, D. C. Fuls, A. R. Gibbs, H. Groeller, J.
    K. Hogan, R. A. Kowalski, S. M. Larson, C. Lejoly, G. J. Leonard, R. A.
    Mastaler, R. S. McMillan, D. Rankin, R. L. Seaman, A. Serrano, F. C.
    Shelly, K. W. Wierzchos.  2.25-m reflector + 4x4K mosaic CCD.
V06 Catalina Sky Survey-Kuiper.  Observer G. J. Leonard.  Measurers T. Beuden,
    V. F. Carvajal, D. Fay, J. B. Fazekas, D. C. Fuls, A. R. Gibbs, A. D.
    Grauer, H. Groeller, J. K. Hogan, R. A. Kowalski, S. M. Larson, G. J.
    Leonard, D. Rankin, R. L. Seaman, F. C. Shelly, K. W. Wierzchos.  1.55-m
    reflector + 1K CCD.
Orbital elements:
2024 BL                                                  Earth MOID = 0.0107 AU
Epoch 2023 Sept. 13.0 TT = JDT 2460200.5                MPC                     
M 311.02447              (2000.0)            P               Q                  
n   0.28369783     Peri.   79.14347     -0.96918368     +0.22924784             
a   2.2938519      Node   114.05986     -0.24633667     -0.90028218             
e   0.6941658      Incl.    5.66638     -0.00110999     -0.37005056             
P   3.47           H   27.11          G   0.15           U   8                  
Residuals in seconds of arc
240117 V00  0.0   0.0     240117 V06  0.1-  0.1+    240117 J95  0.1+  0.1-
240117 V00  0.0   0.0     240117 V06  0.1+  0.1+    240117 J95  0.2+  0.3+
240117 V00  0.0   0.2-    240117 291  0.0   0.4+    240118 033  0.2-  0.1-
240117 V00  0.0   0.0     240117 291  0.0   0.2+    240118 033  0.3+  0.2+
240117 V06  0.0   0.1+    240117 291  0.0   0.5+    240118 033  0.0   0.2-
240117 V06  0.1-  0.1+    240117 J95  0.4-  0.2-    240118 033  0.4+  0.3-
Ephemeris:
2024 BL                  a,e,i = 2.29, 0.69, 6                   q = 0.7015
Date    TT    R. A. (2000) Decl.     Delta      r    Elong.  Phase     V
2023 12 19    07 31 55.5 +14 51 27   0.3901  1.3440   153.3    19.2    26.7
...
2024 01 03    07 39 10.7 +15 29 33   0.2018  1.1805   166.4    11.3    24.7
...
2024 01 11    07 46 14.0 +17 36 38   0.1102  1.0930   173.6     5.8    23.0
...
2024 01 17    08 09 25.0 +25 04 07   0.04482 1.0283   174.3     5.5    20.9
2024 01 18    08 22 47.1 +28 55 39   0.03441 1.0177   169.9     9.8    20.5
2024 01 19    08 50 08.6 +35 45 22   0.02448 1.0071   161.3    18.2    20.0
...
2024 01 25    18 58 06.0 +00 12 35   0.04567 0.9447    29.0   149.7    28.6
...
2024 02 02    19 21 40.2 -08 26 15   0.1334  0.8666    25.2   151.0    31.1
...
2024 02 17    19 38 51.6 -11 32 08   0.3134  0.7497    34.2   132.2    29.9
A. U. Tomatic                (C) Copyright 2024 MPC           M.P.E.C. 2024-B35
    
    
More information about the Iaude
mailing list